Temperature
17 17 17 17 17 17 17 17 17 17 17 17 17 17 17 17 18 18 18 18 18 18 18 18 18 18 18 18 18 18 18 18 18 18 18 18 18 18 18 18 18 18 18
17 17 17 17 17 17 17 17 17 17 17 17 17 17 17 17 17 17 17 17 17 18 18 18 18 18 18 18 18 18 18 18 18 18 18 18 18 18 18 18 18 18 18
17 17 17 17 17 17 17 17 17 17 17 17 17 17 17 17 17 17 17 17 17 17 17 17 18 18 18 18 18 18 18 17 17 17 17 18 18 18 18 18 17 17 18
17 17 17 17 17 17 17 17 17 17 17 17 17 17 17 17 17 17 17 17 17 17 17 17 17 18 18 18 17 17 17 17 17 17 17 17 17 17 17 17 17 17 17
17 17 17 17 17 17 17 17 17 17 17 17 17 17 17 17 17 17 17 17 17 17 17 17 17 17 17 17 17 17 17 17 17 17 17 17 17 17 17 17 17 17 17
17 17 17 17 17 17 17 16 17 17 16 16 16 16 17 17 17 17 17 17 17 17 17 17 17 17 17 17 17 17 17 17 17 17 17 17 17 17 17 17 17 17 17
17 17 17 17 17 17 16 16 16 16 16 16 16 16 17 17 17 17 17 17 17 17 17 17 17 17 17 17 17 17 17 17 17 17 17 17 17 17 17 17 17 17 17
17 17 17 17 17 16 16 16 16 16 16 16 16 16 16 16 16 16 16 16 16 16 16 16 17 17 17 17 17 17 16 16 16 16 16 16 16 16 17 17 17 17 17
17 17 17 17 17 16 16 16 16 16 16 16 16 16 16 16 16 16 16 16 16 16 16 16 16 16 17 16 16 16 16 16 16 16 16 16 16 16 16 16 16 16 16
17 17 17 17 17 16 16 16 16 16 16 16 16 16 16 16 16 16 16 16 16 16 16 16 16 16 16 16 16 16 16 16 16 16 16 16 16 16 16 16 16 16 16
17 17 17 17 16 16 16 16 16 16 16 16 16 16 16 16 16 16 16 16 16 16 16 16 16 16 16 16 16 16 16 16 16 16 16 16 15 16 16 16 16 16 16
17 17 17 17 17 16 16 16 16 16 16 16 16 16 16 16 16 16 16 16 16 16 16 16 16 16 16 16 16 16 16 16 16 16 15 15 15 15 15 15 15 15 15
17 17 17 17 17 16 16 16 16 16 16 16 16 16 16 16 16 16 16 16 16 16 16 15 15 16 16 16 15 15 15 15 15 15 15 15 15 15 15 15 15 15 15
17 17 17 17 17 17 16 16 16 16 16 16 16 16 16 16 16 16 16 15 15 15 15 15 15 15 15 15 15 15 15 15 15 15 15 15 15 15 15 15 15 15 15
18 17 17 17 17 17 16 16 16 16 16 16 16 16 16 16 16 16 15 15 15 15 15 15 15 15 15 15 15 15 15 15 15 15 15 15 15 15 15 15 15 15 15
18 17 17 17 17 17 17 16 16 16 16 16 16 16 16 16 15 15 15 15 15 15 15 15 15 15 15 15 15 15 15 15 14 14 14 14 14 14 14 14 14 14 14
18 18 17 17 17 17 17 16 16 16 16 16 16 16 16 15 15 15 15 15 15 15 15 15 15 15 15 14 14 14 14 14 14 14 14 14 14 14 14 14 14 14 14
18 18 17 17 17 17 16 16 16 16 16 16 16 16 15 15 15 15 15 15 15 15 15 15 15 15 14 14 14 14 14 14 14 14 14 14 14 14 14 14 14 14 14
18 18 18 17 17 17 17 16 16 16 16 16 16 16 15 15 15 15 15 15 14 14 14 14 14 14 14 14 14 14 14 14 14 14 14 14 14 14 14 14 14 14 14
18 18 18 17 17 17 17 16 16 16 16 16 16 15 15 15 15 15 15 15 14 14 14 14 14 14 14 14 14 14 13 13 13 13 13 13 13 13 14 14 14 13 13
18 18 18 17 17 17 17 16 16 16 16 16 15 15 15 15 15 15 15 14 14 14 14 14 14 14 14 14 14 13 13 13 13 13 13 13 13 13 13 13 13 13 13
18 18 18 17 17 17 17 16 16 16 16 15 15 15 15 15 15 15 15 14 14 14 14 14 14 14 14 14 14 13 13 13 13 13 13 13 13 13 13 13 13 13 13
18 18 18 17 17 17 17 16 16 16 16 15 15 15 15 15 15 14 14 14 14 14 14 14 14 14 14 14 13 13 13 13 13 12 12 12 12 13 13 12 12 12 12
18 18 18 17 17 17 16 16 16 16 16 15 15 15 15 14 14 14 14 14 14 14 14 14 13 13 14 13 13 13 13 13 13 12 12 12 12 12 12 12 12 12 12
18 18 17 17 17 17 17 16 16 16 16 15 15 15 14 14 14 14 14 14 14 14 14 13 13 13 13 13 13 13 13 13 13 13 12 12 12 12 12 12 12 12 12
18 17 17 17 17 17 16 16 16 16 16 15 15 15 14 14 14 14 14 14 14 14 14 13 13 13 13 13 13 13 13 13 13 13 12 12 12 12 12 12 12 12 12
Wind_Speed
3 4 3 3 4 4 5 6 6 6 6 7 7 7 7 7 7 6 7 7 7 7 7 7 7 7 7 7 7 7 8 9 8 7 7 7 7 7 6 6 6 5 5
2 3 2 3 4 5 5 5 6 6 6 6 7 7 7 7 7 7 8 7 7 7 7 7 7 7 7 7 7 7 8 8 8 8 8 7 7 7 7 6 5 5 5
1 2 2 3 4 5 5 5 6 6 7 7 7 7 7 7 6 7 8 8 7 8 8 7 7 7 7 7 8 8 8 8 7 8 7 6 5 6 6 5 5 5 5
1 2 2 4 4 4 5 6 6 6 7 7 7 7 7 7 7 7 8 7 8 8 8 7 7 7 7 7 8 8 8 8 8 7 6 5 4 5 6 5 5 5 5
2 2 2 4 5 5 5 6 6 6 6 6 6 7 7 7 7 8 7 7 7 7 7 7 7 6 6 7 8 8 9 9 9 8 7 6 5 5 6 6 5 5 5
2 2 3 4 5 5 5 6 6 6 6 6 6 7 7 7 7 8 7 7 7 7 7 7 7 7 7 7 8 8 9 9 8 7 6 5 4 5 6 6 6 6 6
1 2 3 4 5 5 6 6 6 6 6 6 7 7 7 7 8 8 8 7 7 7 7 7 7 7 7 7 8 8 9 9 8 7 5 4 5 5 5 6 6 6 6
1 2 3 4 5 5 5 6 6 7 7 7 8 7 7 8 8 8 8 8 7 7 8 7 7 7 7 8 8 8 8 8 7 6 5 4 4 5 5 6 6 6 6
2 2 3 4 5 5 5 5 6 7 7 8 8 7 7 8 8 8 8 7 8 8 8 7 7 7 7 8 8 8 8 9 7 5 5 4 5 5 6 6 6 6 6
2 2 2 3 4 5 6 6 7 7 7 8 8 9 9 9 9 8 8 7 8 8 8 8 8 8 9 9 8 8 9 8 7 6 5 5 5 5 6 6 6 6 6
1 1 1 2 3 4 4 5 6 7 7 8 8 9 9 8 8 8 8 8 9 9 10 11 10 11 11 11 10 10 9 7 7 5 5 5 6 6 7 6 6 5 6
1 1 0 1 2 3 3 4 5 5 6 6 6 7 7 7 8 8 10 10 11 11 12 13 13 12 11 9 10 10 8 8 6 5 5 6 6 7 7 6 6 5 6
1 1 0 0 1 2 2 3 4 4 5 6 6 6 6 7 7 8 8 8 9 10 9 10 11 10 10 9 8 8 8 7 6 6 5 7 7 7 7 7 6 6 6
2 1 1 1 1 1 2 2 3 3 3 3 4 5 5 4 4 5 5 6 7 6 7 7 7 9 9 10 9 9 9 7 7 7 8 9 8 8 8 8 8 7 6
3 2 1 2 2 2 2 1 3 2 2 3 4 4 4 3 3 4 4 5 6 6 6 6 6 7 7 8 8 8 8 8 9 8 8 11 10 10 9 9 8 8 7
3 3 2 2 2 3 2 1 1 2 2 3 3 4 5 4 3 3 4 4 5 6 6 6 6 5 5 6 7 7 7 8 8 9 9 10 12 11 10 9 9 9 9
3 3 3 3 3 3 2 2 2 2 3 3 3 4 5 5 4 4 3 3 4 5 6 6 6 6 5 5 6 6 6 7 8 8 9 9 9 11 12 11 10 10 10
3 3 3 4 4 3 3 2 2 3 3 3 3 4 5 5 5 5 3 3 4 5 5 4 4 5 5 5 5 5 5 6 7 8 9 9 10 9 11 13 13 13 11
4 4 4 4 4 4 3 3 3 4 4 3 4 4 4 5 6 5 4 3 4 4 3 3 4 4 4 4 4 5 5 5 5 7 8 9 10 10 10 11 13 14 13
3 4 4 4 4 4 4 4 3 4 3 3 3 3 4 5 5 5 4 4 4 4 3 3 4 4 3 3 5 5 5 4 5 5 6 7 8 10 10 10 10 11 14
3 4 4 4 4 4 3 2 2 2 1 2 2 3 4 4 5 5 3 3 3 3 3 3 3 4 3 2 3 4 4 5 5 5 5 5 7 8 9 9 9 9 9
4 4 4 4 4 4 3 2 2 2 1 1 1 2 3 3 4 4 3 3 3 3 4 3 3 2 2 2 2 3 2 4 4 5 4 4 4 6 7 8 8 9 9
4 5 5 5 5 4 4 3 3 3 3 2 2 2 1 2 2 3 3 3 3 3 3 2 2 3 2 1 2 3 2 1 1 3 3 3 4 4 4 5 7 7 8
4 4 4 5 4 4 5 5 4 3 2 1 1 0 1 1 2 2 3 3 3 3 3 2 2 2 3 1 1 2 1 3 2 1 2 3 3 3 3 4 5 6 7
3 4 4 5 4 4 4 5 5 3 2 1 1 1 1 1 1 2 2 3 2 2 3 2 2 2 2 2 2 1 2 2 2 2 0 2 2 2 2 3 4 4 5
2 3 4 4 3 3 4 4 5 4 3 3 1 1 0 0 1 0 2 2 2 2 3 2 2 2 1 2 2 2 2 2 2 2 2 1 1 2 2 2 3 3 3
Wind_Direction
293 297 322 25 43 54 63 63 67 68 68 75 76 80 84 82 82 90 95 99 101 99 97 97 97 98 92 95 97 95 93 101 106 107 109 112 114 112 112 110 109 105 110
267 301 336 34 54 61 63 61 66 71 75 79 78 81 82 81 79 85 92 87 90 91 88 91 92 93 94 95 98 98 95 93 97 95 96 99 104 104 101 103 108 106 107
19 355 2 52 70 64 62 63 65 73 79 77 78 80 81 85 85 81 85 85 85 84 79 81 84 87 93 94 95 95 95 92 92 87 82 73 88 100 101 102 107 107 104
75 33 39 67 74 68 67 66 66 74 77 76 77 80 82 84 86 83 80 82 82 79 76 76 79 82 89 96 96 95 94 93 94 87 72 65 77 100 101 98 99 100 97
60 38 43 67 71 70 71 68 69 74 77 74 73 76 79 82 84 84 80 77 75 76 77 77 76 81 89 95 96 96 95 96 93 84 72 67 71 94 99 95 91 91 91
49 30 38 64 65 67 70 71 69 69 73 72 71 70 72 78 82 82 85 80 74 74 77 77 75 81 89 92 92 94 99 98 91 83 75 73 75 93 97 95 93 89 87
55 34 37 64 63 66 69 68 68 66 64 67 69 69 70 74 74 75 78 77 74 72 73 76 76 76 82 89 94 97 96 96 85 76 72 74 78 91 96 91 90 86 83
87 56 39 54 62 64 65 69 69 68 66 67 66 66 67 68 66 67 69 69 67 68 70 73 76 78 82 89 92 93 95 90 84 74 67 66 79 86 89 87 83 84 83
74 57 38 30 37 45 51 62 65 68 68 65 62 61 64 64 60 59 59 60 61 61 64 68 76 81 82 84 86 84 86 84 74 64 64 56 70 79 85 89 89 88 82
51 37 32 30 33 32 34 52 63 66 64 59 55 55 59 55 51 52 49 53 57 59 59 66 76 80 79 80 80 77 79 77 64 56 45 52 67 75 78 84 87 88 84
47 10 25 28 25 27 33 50 59 59 56 53 50 50 48 41 37 39 44 50 54 56 58 67 74 74 72 70 69 70 71 64 59 49 41 56 65 74 77 80 80 80 83
246 283 14 30 18 25 40 48 47 53 53 56 56 49 46 44 41 42 43 50 55 56 55 61 66 66 63 58 57 61 62 63 58 48 46 58 64 71 72 73 78 80 82
222 261 175 84 43 54 49 46 44 50 53 53 54 55 54 52 47 41 40 42 49 53 54 54 56 57 60 57 53 53 55 57 49 39 42 60 65 69 72 70 72 80 82
179 219 199 145 90 72 74 57 58 57 58 57 53 61 70 63 52 44 44 45 52 57 59 58 61 60 60 58 56 53 50 49 45 37 39 53 61 66 69 65 66 71 73
186 205 181 145 135 105 81 58 71 61 63 66 63 69 86 85 67 58 53 56 57 63 68 65 63 59 56 54 57 57 51 47 45 41 33 42 50 55 59 60 59 62 68
191 189 171 159 157 121 111 99 79 74 76 74 68 75 87 95 90 74 61 59 58 66 72 72 71 65 58 58 53 55 52 49 45 43 38 35 41 45 46 49 52 57 61
188 174 168 162 137 129 122 109 90 84 88 78 75 82 90 99 100 94 73 60 63 72 76 75 69 66 63 59 51 50 51 48 48 44 41 36 36 41 44 46 49 53 57
169 162 167 153 130 121 114 103 85 78 81 79 80 83 91 98 103 99 83 68 78 76 77 76 70 66 60 60 52 43 45 46 45 46 46 42 39 37 40 46 50 52 54
170 162 151 137 132 124 109 93 81 73 68 71 75 80 90 97 104 103 95 87 88 82 68 78 72 80 75 69 67 52 41 43 40 48 46 44 43 41 40 45 48 48 48
150 147 144 134 126 113 97 83 69 61 52 58 67 77 93 99 104 105 103 95 93 85 71 73 79 72 79 76 73 59 44 40 44 44 43 45 46 45 43 41 41 41 42
141 145 152 142 138 126 109 106 95 74 47 42 53 72 92 104 106 104 104 97 92 97 102 98 94 81 68 71 77 57 37 41 47 43 40 43 44 43 46 44 42 40 36
162 162 160 158 156 150 134 126 123 118 92 61 37 54 78 102 108 117 113 114 106 108 102 100 102 99 73 64 101 93 39 17 22 31 35 42 36 39 43 44 45 42 37
178 180 176 169 163 152 129 109 86 67 49 37 30 26 37 96 108 118 129 124 123 124 132 130 122 116 119 57 72 124 127 176 344 4 25 34 29 34 35 38 44 40 39
197 179 164 160 158 154 142 138 136 135 146 202 198 18 25 71 99 122 131 131 133 131 139 153 129 129 132 123 59 49 114 153 145 23 358 15 24 29 22 31 34 36 36
178 166 161 156 160 161 153 152 148 144 154 140 98 82 52 44 75 109 133 134 141 146 160 166 135 138 139 148 143 125 95 75 101 141 190 345 13 12 17 23 28 28 31
135 145 151 157 170 170 163 158 162 163 157 142 139 145 139 344 356 89 142 145 158 163 176 178 165 151 146 140 140 147 152 147 158 147 170 229 340 338 6 18 21 18 24
Height
1519 1518 1517 1516 1516 1515 1514 1514 1514 1514 1514 1513 1513 1513 1513 1514 1514 1514 1514 1514 1515 1515 1516 1516 1517 1517 1518 1518 1518 1518 1517 1518 1519 1521 1523 1524 1525 1525 1526 1527 1528 1529 1529
1519 1518 1517 1517 1516 1516 1515 1515 1515 1514 1514 1514 1514 1514 1514 1514 1514 1514 1514 1515 1515 1516 1516 1517 1517 1518 1518 1519 1519 1519 1519 1520 1521 1522 1524 1524 1525 1526 1527 1527 1528 1529 1529
1520 1519 1517 1517 1517 1517 1516 1516 1516 1515 1515 1515 1515 1515 1515 1515 1515 1515 1515 1515 1516 1517 1517 1518 1518 1519 1519 1519 1520 1520 1521 1521 1522 1523 1524 1525 1526 1526 1527 1528 1528 1529 1529
1520 1520 1519 1518 1517 1517 1517 1517 1516 1516 1516 1516 1516 1516 1516 1516 1516 1516 1516 1516 1517 1517 1518 1518 1519 1519 1520 1520 1520 1521 1522 1523 1523 1524 1525 1526 1526 1527 1527 1528 1528 1529 1530
1522 1521 1520 1519 1518 1518 1518 1518 1517 1517 1517 1517 1517 1517 1517 1517 1517 1517 1517 1517 1517 1518 1518 1519 1519 1519 1520 1520 1521 1522 1522 1523 1524 1525 1525 1526 1527 1527 1528 1528 1528 1529 1530
1523 1522 1521 1521 1520 1520 1519 1519 1519 1519 1519 1518 1518 1518 1518 1518 1518 1518 1518 1518 1518 1519 1519 1519 1519 1520 1520 1521 1521 1522 1523 1524 1524 1525 1526 1526 1527 1528 1528 1528 1529 1529 1529
1524 1523 1523 1522 1521 1521 1521 1520 1520 1520 1520 1520 1519 1519 1519 1519 1519 1519 1519 1519 1519 1519 1519 1519 1519 1520 1520 1521 1521 1522 1523 1524 1525 1525 1526 1527 1527 1528 1528 1528 1529 1529 1529
1525 1525 1524 1524 1523 1523 1523 1522 1522 1522 1522 1521 1521 1521 1521 1521 1521 1520 1520 1520 1520 1520 1519 1519 1519 1520 1520 1521 1521 1522 1523 1524 1525 1525 1526 1527 1527 1528 1528 1528 1528 1529 1529
1527 1526 1526 1525 1525 1525 1524 1524 1524 1524 1523 1523 1523 1523 1523 1522 1522 1522 1521 1521 1521 1520 1519 1518 1518 1519 1520 1521 1521 1522 1523 1524 1525 1526 1526 1527 1527 1527 1527 1528 1528 1529 1529
1528 1528 1527 1527 1527 1527 1526 1526 1526 1526 1525 1525 1525 1525 1524 1524 1524 1523 1523 1522 1522 1520 1518 1516 1516 1518 1520 1520 1521 1522 1523 1524 1525 1526 1526 1527 1527 1527 1527 1528 1528 1528 1529
1529 1529 1529 1529 1529 1528 1528 1528 1528 1528 1527 1527 1527 1526 1526 1526 1525 1525 1524 1524 1523 1521 1518 1515 1515 1518 1520 1521 1522 1522 1522 1523 1524 1525 1526 1527 1527 1527 1527 1527 1528 1528 1528
1530 1530 1530 1530 1530 1530 1530 1530 1530 1529 1529 1529 1528 1528 1528 1527 1527 1526 1526 1525 1524 1522 1520 1519 1518 1520 1522 1522 1523 1522 1523 1524 1525 1526 1526 1527 1527 1527 1527 1527 1528 1528 1528
1531 1531 1531 1531 1532 1531 1531 1531 1531 1531 1531 1531 1530 1530 1530 1529 1529 1528 1527 1527 1526 1525 1524 1523 1522 1523 1523 1524 1524 1524 1524 1525 1526 1527 1527 1527 1527 1528 1528 1528 1528 1528 1528
1532 1532 1533 1533 1533 1533 1533 1533 1533 1533 1533 1532 1532 1532 1531 1531 1530 1530 1529 1529 1528 1527 1527 1526 1525 1525 1525 1526 1525 1525 1526 1526 1527 1528 1528 1528 1528 1528 1528 1528 1528 1528 1528
1532 1533 1533 1534 1534 1534 1534 1534 1534 1534 1534 1534 1533 1533 1533 1532 1532 1531 1531 1530 1530 1529 1529 1528 1528 1528 1528 1527 1527 1527 1527 1528 1528 1528 1529 1529 1529 1529 1529 1529 1529 1529 1528
1533 1533 1534 1534 1535 1535 1535 1535 1535 1535 1535 1535 1535 1534 1534 1533 1533 1533 1532 1532 1532 1531 1531 1530 1530 1530 1530 1529 1529 1529 1529 1529 1529 1529 1529 1529 1529 1530 1530 1530 1529 1529 1529
1533 1534 1534 1535 1535 1536 1536 1536 1536 1536 1536 1536 1536 1535 1535 1534 1534 1534 1534 1533 1533 1533 1532 1532 1531 1531 1531 1531 1531 1531 1531 1531 1531 1531 1531 1531 1531 1531 1530 1530 1530 1530 1529
1533 1534 1535 1535 1536 1536 1536 1537 1537 1537 1537 1537 1536 1536 1536 1536 1535 1535 1535 1534 1534 1534 1533 1533 1533 1533 1532 1532 1532 1532 1532 1532 1532 1532 1532 1531 1531 1531 1531 1531 1530 1530 1530
1533 1534 1535 1535 1536 1536 1537 1537 1538 1538 1538 1537 1537 1537 1537 1536 1536 1536 1535 1535 1535 1535 1534 1534 1534 1534 1534 1533 1533 1534 1534 1534 1534 1533 1533 1533 1532 1532 1532 1531 1531 1531 1530
1533 1534 1535 1535 1536 1537 1537 1538 1538 1538 1538 1538 1538 1537 1537 1537 1537 1537 1536 1536 1536 1536 1535 1535 1535 1535 1535 1535 1535 1535 1535 1535 1535 1535 1534 1534 1534 1533 1533 1533 1532 1532 1531
1532 1533 1534 1535 1536 1537 1537 1537 1538 1538 1538 1538 1538 1538 1538 1538 1537 1537 1537 1537 1537 1536 1536 1536 1536 1536 1536 1536 1536 1536 1537 1537 1536 1536 1536 1535 1535 1535 1534 1534 1533 1533 1532
1531 1532 1533 1534 1536 1536 1537 1538 1538 1539 1539 1539 1539 1538 1538 1538 1538 1538 1537 1537 1537 1537 1537 1537 1537 1537 1537 1537 1537 1537 1538 1539 1538 1538 1537 1537 1536 1536 1536 1535 1534 1534 1533
1530 1531 1533 1534 1535 1536 1537 1538 1538 1538 1539 1539 1539 1539 1538 1538 1538 1538 1538 1538 1537 1537 1538 1538 1538 1538 1538 1538 1538 1538 1538 1538 1539 1539 1538 1538 1538 1537 1537 1536 1536 1535 1534
1529 1531 1532 1534 1535 1536 1537 1538 1538 1538 1538 1538 1538 1538 1538 1538 1538 1538 1538 1538 1538 1538 1538 1538 1538 1538 1538 1538 1538 1538 1539 1538 1538 1539 1540 1539 1539 1538 1538 1537 1536 1536 1535
1529 1530 1532 1533 1534 1536 1536 1537 1538 1538 1538 1538 1538 1538 1538 1538 1538 1537 1537 1537 1537 1537 1538 1538 1538 1538 1538 1538 1538 1538 1538 1538 1538 1538 1539 1539 1539 1538 1538 1538 1537 1537 1536
1528 1529 1531 1532 1533 1535 1536 1537 1537 1537 1537 1538 1537 1537 1537 1537 1537 1537 1537 1537 1537 1537 1537 1537 1538 1538 1538 1538 1538 1538 1538 1538 1538 1538 1538 1538 1538 1538 1538 1538 1537 1537 1536